Regional Weather Roundup
Issued by NWS

Home | Current Version | Previous Version | Graphics & Text | Print | Product List | Glossary On
Versions: 1 2 3 4 5 6 7 8 9 10 11 12 13 14 15 16 17 18 19 20 21 22 23 24 25 26 27
000
ASUS45 KBOU 191406
RWRCO

WEATHER ROUNDUP FOR COLORADO
NATIONAL WEATHER SERVICE DENVER/BOULDER CO
800 AM MDT SAT APR 19 2014

NOTE: "FAIR" INDICATES FEW OR NO CLOUDS BELOW 12000 FEET WITH NO
SIGNIFICANT WEATHER AND/OR OBSTRUCTIONS TO VISIBILITY.

COZ001>005-013-030-031-191500-
...NORTHWEST COLORADO...

CITY           SKY/WX    TMP DP  RH WIND       PRES   REMARKS
CRAIG          CLOUDY    43  35  73 CALM      30.09R
HAYDEN         PTSUNNY   45  34  65 E7        30.12S
MEEKER         CLOUDY    48  35  60 N3        30.10R
MOUNT WERNER   PTSUNNY   37  25  60 W5        30.24R
STEAMBOAT SPGS PTSUNNY   39  31  71 CALM      30.11R
WALDEN         CLOUDY    34  27  75 SE7       30.13S WCI  28
$$

COZ006>008-011-191500-
...WEST CENTRAL VALLEYS...

CITY           SKY/WX    TMP DP  RH WIND       PRES   REMARKS
GRAND JUNCTION LGT RAIN  50  46  86 W5        30.09R
MONTROSE       CLOUDY    52  37  56 E5        30.13R
EAGLE          CLOUDY    45  34  65 CALM      30.13R
RIFLE          CLOUDY    50  37  61 CALM      30.08R
DELTA          CLOUDY    55  43  63 W9        30.10R
NUCLA            N/A     46  43  87 E5        30.17S
$$

COZ017>023-064>068-191500-
...SOUTHWEST COLORADO...

CITY           SKY/WX    TMP DP  RH WIND       PRES   REMARKS
DURANGO        PTSUNNY   43  42  97 SE3       30.17R
CORTEZ         CLOUDY    47  45  93 CALM      30.14R
PAGOSA SPRINGS CLOUDY    43  42  97 CALM      30.21R
TELLURIDE      CLOUDY    37  37 100 CALM      30.21R
WOLF CREEK PAS HVY SNOW  28  28 100 SW16G22   30.29R VSB<1/4 WCI  17
$$

COZ009-010-012-014-032>034-037-058>063-191500-
...CENTRAL COLORADO...

CITY           SKY/WX    TMP DP  RH WIND       PRES   REMARKS
ASPEN          CLOUDY    43  30  60 CALM      30.15R
BUENA VISTA    CLOUDY    40  30  66 NW3       30.17R
COPPER MTN     CLOUDY    34  28  80 S8        30.28S WCI  27
BERTHOUD PASS  CLOUDY    27  18  69 CALM      30.32R
COTTONWOOD PAS CLOUDY    41  27  56 CALM      30.23R
GUNNISON       PTSUNNY   39  27  60 N6        30.20R
KREMMLING      PTSUNNY   37  30  75 CALM      30.16R
LEADVILLE      CLOUDY    32  23  69 N3        30.21R
MONARCH PASS   CLOUDY    30  27  86 SW3       30.39R
SALIDA         PTSUNNY   49  35  60 SW5       30.23R
SUNLIGHT       CLOUDY    36  32  87 CALM      30.26R
WILKERSON PASS CLOUDY    34  21  60 W3        30.28S
$$

COZ069>075-191500-
...SAN LUIS VALLEY/SANGRE DE CRISTO MOUNTAINS...

CITY           SKY/WX    TMP DP  RH WIND       PRES   REMARKS
ALAMOSA        CLOUDY    48  36  63 S16       30.15R
LA VETA PASS   NOT AVBL
SAGUACHE       CLOUDY    48  34  57 SE10      30.19R
$$

COZ035-036-038>040-191500-
...NORTHERN COLORADO FRONT RANGE...

CITY           SKY/WX    TMP DP  RH WIND       PRES   REMARKS
DENVER INTL AP CLOUDY    54  36  50 SE7       30.02R
DMNS CITY PARK   N/A     56  35  44 E3        30.01R
AURORA         PTSUNNY   55  34  44 E6        30.02R
FRONT RANGE AP CLOUDY    55  37  50 SE3       30.03
ERIE MUNI ARPT CLOUDY    56  32  40 CALM      30.01R
BOULDER MUN AP CLOUDY    52  34  50 NW3       30.01R
CENTENNIAL     CLOUDY    56  34  43 S6        30.03R
BROOMFIELD     NOT AVBL
FORT COLLINS   CLOUDY    46  37  71 S5        30.03R
LONGMONT       CLOUDY    53  41  63 W3        30.03
$$

COZ041-046-047-076>085-087-088-191500-
...PIKES PEAK/PALMER DIVIDE AND SOUTHERN FOOTHILLS...

CITY           SKY/WX    TMP DP  RH WIND       PRES   REMARKS
COLO. SPRINGS  CLOUDY    52  32  46 NE12      30.04R
A. F. ACADEMY  CLOUDY    49  32  52 N8        30.04R
ELLICOTT       NOT AVBL
FALCON         CLOUDY    51  28  41 N8        30.08R
FORT CARSON    CLOUDY    54  33  44 NE6       30.01R
LIMON          CLOUDY    56  33  42 N15       30.01R
MONUMENT HILL  CLOUDY    50  28  43 SE5       30.08R
TRINIDAD       MOSUNNY   56  35  45 W10       30.05R
$$

COZ042>045-048>051-090-091-191500-
...NORTHEAST COLORADO...

CITY           SKY/WX    TMP DP  RH WIND       PRES   REMARKS
GREELEY ARPT   CLOUDY    50  36  57 NE12G20   30.02R
AKRON          CLOUDY    53  37  54 N18       29.99R
BURLINGTON     PTSUNNY   60  39  45 N14       29.94R
WRAY           MOSUNNY   56  44  63 N17       29.94R
STERLING       CLOUDY    54  41  62 NE18G29   29.99R
HOLYOKE        MOSUNNY   54  45  71 N16       29.96R
FORT MORGAN    CLOUDY    53  36  52 N18       30.01R
$$

COZ086-089-092>099-191500-
...SOUTHEAST COLORADO...

CITY           SKY/WX    TMP DP  RH WIND       PRES   REMARKS
PUEBLO         CLOUDY    53  41  63 W5        29.96S
LA JUNTA       CLOUDY    63  37  38 SW7       29.96R
LAMAR          CLOUDY    60  43  53 SW10      29.93R
SPRINGFIELD      N/A     57  43  59 SW9       30.00R
$$



USA.gov is the U.S. government's official web portal to all federal, state and local government web resources and services.